Year,Month,Day,Hour,Minute,Value (Times are PST for temperature in C)
2015,07,17,00,00,16.70
2015,07,17,00,01,16.60
2015,07,17,00,02,16.60
2015,07,17,00,03,16.60
2015,07,17,00,04,16.60
2015,07,17,00,05,16.60
2015,07,17,00,06,16.60
2015,07,17,00,07,16.50
2015,07,17,00,08,16.50
2015,07,17,00,09,16.40
2015,07,17,00,10,16.40
2015,07,17,00,11,16.40
2015,07,17,00,12,16.40
2015,07,17,00,13,16.40
2015,07,17,00,14,16.40
2015,07,17,00,15,16.40
2015,07,17,00,16,16.50
2015,07,17,00,17,16.50
2015,07,17,00,18,16.60
2015,07,17,00,19,16.60
2015,07,17,00,20,16.60
2015,07,17,00,21,16.70
2015,07,17,00,22,16.70
2015,07,17,00,23,16.70
2015,07,17,00,24,16.80
2015,07,17,00,25,16.90
2015,07,17,00,26,16.90
2015,07,17,00,27,17.00
2015,07,17,00,28,17.20
2015,07,17,00,29,17.30
2015,07,17,00,30,17.40
2015,07,17,00,31,17.50
2015,07,17,00,32,17.60
2015,07,17,00,33,17.70
2015,07,17,00,34,17.80
2015,07,17,00,35,18.00
2015,07,17,00,36,18.10
2015,07,17,00,37,18.30
2015,07,17,00,38,18.40
2015,07,17,00,39,18.40
2015,07,17,00,40,18.50
2015,07,17,00,41,18.60
2015,07,17,00,42,18.60
2015,07,17,00,43,18.70
2015,07,17,00,44,18.70
2015,07,17,00,45,18.70
2015,07,17,00,46,18.80
2015,07,17,00,47,18.80
2015,07,17,00,48,18.80
2015,07,17,00,49,18.90
2015,07,17,00,50,18.90
2015,07,17,00,51,18.90
2015,07,17,00,52,18.90
2015,07,17,00,53,18.90
2015,07,17,00,54,18.90
2015,07,17,00,55,18.90
2015,07,17,00,56,18.90
2015,07,17,00,57,18.90
2015,07,17,00,58,18.90
2015,07,17,00,59,18.90
2015,07,17,01,00,18.90
2015,07,17,01,01,18.80
2015,07,17,01,02,18.80
2015,07,17,01,03,18.80
2015,07,17,01,04,18.80
2015,07,17,01,05,18.80
2015,07,17,01,06,18.70
2015,07,17,01,07,18.70
2015,07,17,01,08,18.70
2015,07,17,01,09,18.70
2015,07,17,01,10,18.60
2015,07,17,01,11,18.60
2015,07,17,01,12,18.60
2015,07,17,01,13,18.50
2015,07,17,01,14,18.50
2015,07,17,01,15,18.40
2015,07,17,01,16,18.30
2015,07,17,01,17,18.30
2015,07,17,01,18,18.30
2015,07,17,01,19,18.20
2015,07,17,01,20,18.20
2015,07,17,01,21,18.20
2015,07,17,01,22,18.20
2015,07,17,01,23,18.10
2015,07,17,01,24,18.10
2015,07,17,01,25,18.10
2015,07,17,01,26,18.10
2015,07,17,01,27,18.10
2015,07,17,01,28,18.10
2015,07,17,01,29,18.20
2015,07,17,01,30,18.20
2015,07,17,01,31,18.30
2015,07,17,01,32,18.30
2015,07,17,01,33,18.40
2015,07,17,01,34,18.40
2015,07,17,01,35,18.40
2015,07,17,01,36,18.40
2015,07,17,01,37,18.40
2015,07,17,01,38,18.40
2015,07,17,01,39,18.40
2015,07,17,01,40,18.40
2015,07,17,01,41,18.40
2015,07,17,01,42,18.40
2015,07,17,01,43,18.40
2015,07,17,01,44,18.50
2015,07,17,01,45,18.50
2015,07,17,01,46,18.60
2015,07,17,01,47,18.60
2015,07,17,01,48,18.70
2015,07,17,01,49,18.70
2015,07,17,01,50,18.70
2015,07,17,01,51,18.70
2015,07,17,01,52,18.70
2015,07,17,01,53,18.70
2015,07,17,01,54,18.70
2015,07,17,01,55,18.70
2015,07,17,01,56,18.70
2015,07,17,01,57,18.60
2015,07,17,01,58,18.60
2015,07,17,01,59,18.60
2015,07,17,02,00,18.60
2015,07,17,02,01,18.60
2015,07,17,02,02,18.50
2015,07,17,02,03,18.50
2015,07,17,02,04,18.50
2015,07,17,02,05,18.50
2015,07,17,02,06,18.50
2015,07,17,02,07,18.50
2015,07,17,02,08,18.50
2015,07,17,02,09,18.40
2015,07,17,02,10,18.40
2015,07,17,02,11,18.40
2015,07,17,02,12,18.40
2015,07,17,02,13,18.40
2015,07,17,02,14,18.40
2015,07,17,02,15,18.40
2015,07,17,02,16,18.40
2015,07,17,02,17,18.40
2015,07,17,02,18,18.30
2015,07,17,02,19,18.30
2015,07,17,02,20,18.30
2015,07,17,02,21,18.30
2015,07,17,02,22,18.30
2015,07,17,02,23,18.20
2015,07,17,02,24,18.10
2015,07,17,02,25,18.10
2015,07,17,02,26,18.00
2015,07,17,02,27,17.90
2015,07,17,02,28,17.80
2015,07,17,02,29,17.70
2015,07,17,02,30,17.70
2015,07,17,02,31,17.60
2015,07,17,02,32,17.60
2015,07,17,02,33,17.50
2015,07,17,02,34,17.50
2015,07,17,02,35,17.40
2015,07,17,02,36,17.40
2015,07,17,02,37,17.30
2015,07,17,02,38,17.30
2015,07,17,02,39,17.20
2015,07,17,02,40,17.20
2015,07,17,02,41,17.10
2015,07,17,02,42,17.00
2015,07,17,02,43,17.00
2015,07,17,02,44,16.80
2015,07,17,02,45,16.80
2015,07,17,02,46,16.70
2015,07,17,02,47,16.60
2015,07,17,02,48,16.60
2015,07,17,02,49,16.50
2015,07,17,02,50,16.40
2015,07,17,02,51,16.30
2015,07,17,02,52,16.20
2015,07,17,02,53,16.20
2015,07,17,02,54,16.10
2015,07,17,02,55,16.10
2015,07,17,02,56,16.10
2015,07,17,02,57,16.00
2015,07,17,02,58,16.00
2015,07,17,02,59,16.00
2015,07,17,03,00,15.90
2015,07,17,03,01,15.90
2015,07,17,03,02,15.80
2015,07,17,03,03,15.80
2015,07,17,03,04,15.80
2015,07,17,03,05,15.80
2015,07,17,03,06,15.80
2015,07,17,03,07,15.80
2015,07,17,03,08,15.80
2015,07,17,03,09,15.90
2015,07,17,03,10,15.90
2015,07,17,03,11,15.90
2015,07,17,03,12,15.90
2015,07,17,03,13,15.90
2015,07,17,03,14,15.80
2015,07,17,03,15,15.80
2015,07,17,03,16,15.80
2015,07,17,03,17,15.80
2015,07,17,03,18,15.70
2015,07,17,03,19,15.70
2015,07,17,03,20,15.70
2015,07,17,03,21,15.70
2015,07,17,03,22,15.70
2015,07,17,03,23,15.70
2015,07,17,03,24,15.70
2015,07,17,03,25,15.80
2015,07,17,03,26,15.80
2015,07,17,03,27,15.80
2015,07,17,03,28,15.80
2015,07,17,03,29,15.80
2015,07,17,03,30,15.80
2015,07,17,03,31,15.80
2015,07,17,03,32,15.80
2015,07,17,03,33,15.80
2015,07,17,03,34,15.80
2015,07,17,03,35,15.80
2015,07,17,03,36,15.80
2015,07,17,03,37,15.80
2015,07,17,03,38,15.80
2015,07,17,03,39,15.80
2015,07,17,03,40,15.70
2015,07,17,03,41,15.70
2015,07,17,03,42,15.60
2015,07,17,03,43,15.60
2015,07,17,03,44,15.50
2015,07,17,03,45,15.50
2015,07,17,03,46,15.40
2015,07,17,03,47,15.40
2015,07,17,03,48,15.40
2015,07,17,03,49,15.40
2015,07,17,03,50,15.40
2015,07,17,03,51,15.40
2015,07,17,03,52,15.50
2015,07,17,03,53,15.40
2015,07,17,03,54,15.40
2015,07,17,03,55,15.40
2015,07,17,03,56,15.30
2015,07,17,03,57,15.30
2015,07,17,03,58,15.30
2015,07,17,03,59,15.20
2015,07,17,04,00,15.20
2015,07,17,04,01,15.20
2015,07,17,04,02,15.20
2015,07,17,04,03,15.20
2015,07,17,04,04,15.20
2015,07,17,04,05,15.20
2015,07,17,04,06,15.30
2015,07,17,04,07,15.40
2015,07,17,04,08,15.50
2015,07,17,04,09,15.60
2015,07,17,04,10,15.60
2015,07,17,04,11,15.70
2015,07,17,04,12,15.70
2015,07,17,04,13,15.80
2015,07,17,04,14,15.80
2015,07,17,04,15,15.90
2015,07,17,04,16,16.00
2015,07,17,04,17,16.00
2015,07,17,04,18,16.10
2015,07,17,04,19,16.10
2015,07,17,04,20,16.00
2015,07,17,04,21,16.00
2015,07,17,04,22,15.90
2015,07,17,04,23,15.80
2015,07,17,04,24,15.70
2015,07,17,04,25,15.60
2015,07,17,04,26,15.60
2015,07,17,04,27,15.50
2015,07,17,04,28,15.50
2015,07,17,04,29,15.50
2015,07,17,04,30,15.50
2015,07,17,04,31,15.50
2015,07,17,04,32,15.40
2015,07,17,04,33,15.30
2015,07,17,04,34,15.20
2015,07,17,04,35,15.20
2015,07,17,04,36,15.10
2015,07,17,04,37,15.00
2015,07,17,04,38,15.00
2015,07,17,04,39,15.00
2015,07,17,04,40,15.10
2015,07,17,04,41,15.20
2015,07,17,04,42,15.30
2015,07,17,04,43,15.30
2015,07,17,04,44,15.30
2015,07,17,04,45,15.20
2015,07,17,04,46,15.20
2015,07,17,04,47,15.10
2015,07,17,04,48,15.00
2015,07,17,04,49,15.00
2015,07,17,04,50,15.00
2015,07,17,04,51,15.00
2015,07,17,04,52,15.00
2015,07,17,04,53,14.90
2015,07,17,04,54,14.90
2015,07,17,04,55,14.80
2015,07,17,04,56,14.70
2015,07,17,04,57,14.70
2015,07,17,04,58,14.70
2015,07,17,04,59,14.60
2015,07,17,05,00,14.60
2015,07,17,05,01,14.60
2015,07,17,05,02,14.60
2015,07,17,05,03,14.70
2015,07,17,05,04,14.70
2015,07,17,05,05,14.70
2015,07,17,05,06,14.70
2015,07,17,05,07,14.70
2015,07,17,05,08,14.70
2015,07,17,05,09,14.70
2015,07,17,05,10,14.70
2015,07,17,05,11,14.70
2015,07,17,05,12,14.70
2015,07,17,05,13,14.70
2015,07,17,05,14,14.70
2015,07,17,05,15,14.70
2015,07,17,05,16,14.70
2015,07,17,05,17,14.70
2015,07,17,05,18,14.60
2015,07,17,05,19,14.60
2015,07,17,05,20,14.50
2015,07,17,05,21,14.50
2015,07,17,05,22,14.50
2015,07,17,05,23,14.50
2015,07,17,05,24,14.50
2015,07,17,05,25,14.50
2015,07,17,05,26,14.60
2015,07,17,05,27,14.60
2015,07,17,05,28,14.60
2015,07,17,05,29,14.60
2015,07,17,05,30,14.70
2015,07,17,05,31,14.70
2015,07,17,05,32,14.70
2015,07,17,05,33,14.80
2015,07,17,05,34,14.90
2015,07,17,05,35,15.00
2015,07,17,05,36,15.00
2015,07,17,05,37,15.10
2015,07,17,05,38,15.20
2015,07,17,05,39,15.20
2015,07,17,05,40,15.30
2015,07,17,05,41,15.30
2015,07,17,05,42,15.30
2015,07,17,05,43,15.30
2015,07,17,05,44,15.30
2015,07,17,05,45,15.30
2015,07,17,05,46,15.20
2015,07,17,05,47,15.10
2015,07,17,05,48,15.00
2015,07,17,05,49,15.00
2015,07,17,05,50,15.00
2015,07,17,05,51,15.00
2015,07,17,05,52,15.00
2015,07,17,05,53,15.00
2015,07,17,05,54,15.00
2015,07,17,05,55,15.00
2015,07,17,05,56,15.00
2015,07,17,05,57,15.00
2015,07,17,05,58,15.10
2015,07,17,05,59,15.10
2015,07,17,06,00,15.20
2015,07,17,06,01,15.20
2015,07,17,06,02,15.30
2015,07,17,06,03,15.30
2015,07,17,06,04,15.30
2015,07,17,06,05,15.40
2015,07,17,06,06,15.40
2015,07,17,06,07,15.40
2015,07,17,06,08,15.50
2015,07,17,06,09,15.50
2015,07,17,06,10,15.60
2015,07,17,06,11,15.70
2015,07,17,06,12,15.70
2015,07,17,06,13,15.80
2015,07,17,06,14,15.90
2015,07,17,06,15,16.00
2015,07,17,06,16,16.00
2015,07,17,06,17,16.10
2015,07,17,06,18,16.10
2015,07,17,06,19,16.10
2015,07,17,06,20,16.10
2015,07,17,06,21,16.10
2015,07,17,06,22,16.10
2015,07,17,06,23,16.10
2015,07,17,06,24,16.10
2015,07,17,06,25,16.10
2015,07,17,06,26,16.10
2015,07,17,06,27,16.10
2015,07,17,06,28,16.10
2015,07,17,06,29,16.20
2015,07,17,06,30,16.20
2015,07,17,06,31,16.20
2015,07,17,06,32,16.20
2015,07,17,06,33,16.20
2015,07,17,06,34,16.20
2015,07,17,06,35,16.30
2015,07,17,06,36,16.30
2015,07,17,06,37,16.30
2015,07,17,06,38,16.30
2015,07,17,06,39,16.30
2015,07,17,06,40,16.40
2015,07,17,06,41,16.40
2015,07,17,06,42,16.40
2015,07,17,06,43,16.50
2015,07,17,06,44,16.50
2015,07,17,06,45,16.60
2015,07,17,06,46,16.60
2015,07,17,06,47,16.70
2015,07,17,06,48,16.70
2015,07,17,06,49,16.80
2015,07,17,06,50,16.80
2015,07,17,06,51,16.90
2015,07,17,06,52,16.90
2015,07,17,06,53,16.90
2015,07,17,06,54,17.00
2015,07,17,06,55,17.00
2015,07,17,06,56,17.10
2015,07,17,06,57,17.10
2015,07,17,06,58,17.10
2015,07,17,06,59,17.20
2015,07,17,07,00,17.20
2015,07,17,07,01,17.20
2015,07,17,07,02,17.20
2015,07,17,07,03,17.30
2015,07,17,07,04,17.30
2015,07,17,07,05,17.40
2015,07,17,07,06,17.50
2015,07,17,07,07,17.50
2015,07,17,07,08,17.60
2015,07,17,07,09,17.70
2015,07,17,07,10,17.70
2015,07,17,07,11,17.80
2015,07,17,07,12,17.90
2015,07,17,07,13,17.90
2015,07,17,07,14,18.00
2015,07,17,07,15,18.10
2015,07,17,07,16,18.10
2015,07,17,07,17,18.20
2015,07,17,07,18,18.30
2015,07,17,07,19,18.30
2015,07,17,07,20,18.30
2015,07,17,07,21,18.40
2015,07,17,07,22,18.40
2015,07,17,07,23,18.40
2015,07,17,07,24,18.40
2015,07,17,07,25,18.40
2015,07,17,07,26,18.40
2015,07,17,07,27,18.40
2015,07,17,07,28,18.40
2015,07,17,07,29,18.50
2015,07,17,07,30,18.50
2015,07,17,07,31,18.60
2015,07,17,07,32,18.60
2015,07,17,07,33,18.60
2015,07,17,07,34,18.70
2015,07,17,07,35,18.70
2015,07,17,07,36,18.80
2015,07,17,07,37,18.80
2015,07,17,07,38,18.90
2015,07,17,07,39,18.90
2015,07,17,07,40,19.00
2015,07,17,07,41,19.00
2015,07,17,07,42,19.00
2015,07,17,07,43,19.10
2015,07,17,07,44,19.10
2015,07,17,07,45,19.10
2015,07,17,07,46,19.20
2015,07,17,07,47,19.20
2015,07,17,07,48,19.30
2015,07,17,07,49,19.30
2015,07,17,07,50,19.30
2015,07,17,07,51,19.30
2015,07,17,07,52,19.20
2015,07,17,07,53,19.20
2015,07,17,07,54,19.20
2015,07,17,07,55,19.20
2015,07,17,07,56,19.20
2015,07,17,07,57,19.30
2015,07,17,07,58,19.30
2015,07,17,07,59,19.30
2015,07,17,08,00,19.40
2015,07,17,08,01,19.40
2015,07,17,08,02,19.40
2015,07,17,08,03,19.50
2015,07,17,08,04,19.60
2015,07,17,08,05,19.60
2015,07,17,08,06,19.60
2015,07,17,08,07,19.70
2015,07,17,08,08,19.70
2015,07,17,08,09,19.70
2015,07,17,08,10,19.60
2015,07,17,08,11,19.50
2015,07,17,08,12,19.40
2015,07,17,08,13,19.40
2015,07,17,08,14,19.30
2015,07,17,08,15,19.30
2015,07,17,08,16,19.30
2015,07,17,08,17,19.30
2015,07,17,08,18,19.40
2015,07,17,08,19,19.40
2015,07,17,08,20,19.40
2015,07,17,08,21,19.40
2015,07,17,08,22,19.50
2015,07,17,08,23,19.50
2015,07,17,08,24,19.60
2015,07,17,08,25,19.60
2015,07,17,08,26,19.60
2015,07,17,08,27,19.70
2015,07,17,08,28,19.70
2015,07,17,08,29,19.70
2015,07,17,08,30,19.70
2015,07,17,08,31,19.70
2015,07,17,08,32,19.80
2015,07,17,08,33,19.80
2015,07,17,08,34,19.80
2015,07,17,08,35,19.80
2015,07,17,08,36,19.80
2015,07,17,08,37,19.80
2015,07,17,08,38,19.80
2015,07,17,08,39,19.80
2015,07,17,08,40,19.90
2015,07,17,08,41,19.90
2015,07,17,08,42,19.90
2015,07,17,08,43,20.00
2015,07,17,08,44,20.00
2015,07,17,08,45,20.10
2015,07,17,08,46,20.20
2015,07,17,08,47,20.20
2015,07,17,08,48,20.20
2015,07,17,08,49,20.20
2015,07,17,08,50,20.30
2015,07,17,08,51,20.30
2015,07,17,08,52,20.30
2015,07,17,08,53,20.30
2015,07,17,08,54,20.20
2015,07,17,08,55,20.20
2015,07,17,08,56,20.20
2015,07,17,08,57,20.20
2015,07,17,08,58,20.20
2015,07,17,08,59,20.20
2015,07,17,09,00,20.10
2015,07,17,09,01,20.20
2015,07,17,09,02,20.20
2015,07,17,09,03,20.20
2015,07,17,09,04,20.30
2015,07,17,09,05,20.30
2015,07,17,09,06,20.30
2015,07,17,09,07,20.30
2015,07,17,09,08,20.30
2015,07,17,09,09,20.30
2015,07,17,09,10,20.20
2015,07,17,09,11,20.20
2015,07,17,09,12,20.20
2015,07,17,09,13,20.20
2015,07,17,09,14,20.20
2015,07,17,09,15,20.20
2015,07,17,09,16,20.20
2015,07,17,09,17,20.20
2015,07,17,09,18,20.20
2015,07,17,09,19,20.20
2015,07,17,09,20,20.20
2015,07,17,09,21,20.30
2015,07,17,09,22,20.30
2015,07,17,09,23,20.40
2015,07,17,09,24,20.40
2015,07,17,09,25,20.50
2015,07,17,09,26,20.60
2015,07,17,09,27,20.60
2015,07,17,09,28,20.70
2015,07,17,09,29,20.60
2015,07,17,09,30,20.60
2015,07,17,09,31,20.70
2015,07,17,09,32,20.70
2015,07,17,09,33,20.70
2015,07,17,09,34,20.70
2015,07,17,09,35,20.70
2015,07,17,09,36,20.80
2015,07,17,09,37,20.80
2015,07,17,09,38,20.70
2015,07,17,09,39,20.70
2015,07,17,09,40,20.70
2015,07,17,09,41,20.80
2015,07,17,09,42,20.80
2015,07,17,09,43,20.90
2015,07,17,09,44,21.00
2015,07,17,09,45,21.00
2015,07,17,09,46,21.10
2015,07,17,09,47,21.10
2015,07,17,09,48,21.20
2015,07,17,09,49,21.20
2015,07,17,09,50,21.20
2015,07,17,09,51,21.20
2015,07,17,09,52,21.20
2015,07,17,09,53,21.10
2015,07,17,09,54,21.10
2015,07,17,09,55,21.10
2015,07,17,09,56,21.20
2015,07,17,09,57,21.20
2015,07,17,09,58,21.30
2015,07,17,09,59,21.40
2015,07,17,10,00,21.40
2015,07,17,10,01,21.40
2015,07,17,10,02,21.40
2015,07,17,10,03,21.50
2015,07,17,10,04,21.60
2015,07,17,10,05,21.70
2015,07,17,10,06,21.80
2015,07,17,10,07,21.80
2015,07,17,10,08,21.70
2015,07,17,10,09,21.70
2015,07,17,10,10,21.60
2015,07,17,10,11,21.60
2015,07,17,10,12,21.70
2015,07,17,10,13,21.80
2015,07,17,10,14,21.80
2015,07,17,10,15,21.80
2015,07,17,10,16,21.80
2015,07,17,10,17,21.90
2015,07,17,10,18,22.10
2015,07,17,10,19,22.10
2015,07,17,10,20,22.20
2015,07,17,10,21,22.30
2015,07,17,10,22,22.30
2015,07,17,10,23,22.20
2015,07,17,10,24,22.20
2015,07,17,10,25,22.10
2015,07,17,10,26,22.10
2015,07,17,10,27,22.20
2015,07,17,10,28,22.30
2015,07,17,10,29,22.30
2015,07,17,10,30,22.30
2015,07,17,10,31,22.40
2015,07,17,10,32,22.40
2015,07,17,10,33,22.40
2015,07,17,10,34,22.40
2015,07,17,10,35,22.40
2015,07,17,10,36,22.40
2015,07,17,10,37,22.40
2015,07,17,10,38,22.40
2015,07,17,10,39,22.40
2015,07,17,10,40,22.40
2015,07,17,10,41,22.40
2015,07,17,10,42,22.40
2015,07,17,10,43,22.40
2015,07,17,10,44,22.40
2015,07,17,10,45,22.40
2015,07,17,10,46,22.40
2015,07,17,10,47,22.50
2015,07,17,10,48,22.60
2015,07,17,10,49,22.70
2015,07,17,10,50,22.70
2015,07,17,10,51,22.70
2015,07,17,10,52,22.70
2015,07,17,10,53,22.70
2015,07,17,10,54,22.70
2015,07,17,10,55,22.70
2015,07,17,10,56,22.70
2015,07,17,10,57,22.80
2015,07,17,10,58,22.90
2015,07,17,10,59,22.90
2015,07,17,11,00,22.90
2015,07,17,11,01,22.90
2015,07,17,11,02,23.00
2015,07,17,11,03,23.00
2015,07,17,11,04,23.10
2015,07,17,11,05,23.10
2015,07,17,11,06,23.20
2015,07,17,11,07,23.20
2015,07,17,11,08,23.30
2015,07,17,11,09,23.30
2015,07,17,11,10,23.30
2015,07,17,11,11,23.30
2015,07,17,11,12,23.20
2015,07,17,11,13,23.20
2015,07,17,11,14,23.20
2015,07,17,11,15,23.30
2015,07,17,11,16,23.30
2015,07,17,11,17,23.30
2015,07,17,11,18,23.30
2015,07,17,11,19,23.30
2015,07,17,11,20,23.40
2015,07,17,11,21,23.50
2015,07,17,11,22,23.60
2015,07,17,11,23,23.60
2015,07,17,11,24,23.60
2015,07,17,11,25,23.50
2015,07,17,11,26,23.50
2015,07,17,11,27,23.60
2015,07,17,11,28,23.60
2015,07,17,11,29,23.70
2015,07,17,11,30,23.70
2015,07,17,11,31,23.80
2015,07,17,11,32,23.80
2015,07,17,11,33,23.90
2015,07,17,11,34,23.90
2015,07,17,11,35,24.00
2015,07,17,11,36,24.00
2015,07,17,11,37,24.00
2015,07,17,11,38,23.90
2015,07,17,11,39,23.90
2015,07,17,11,40,24.00
2015,07,17,11,41,24.00
2015,07,17,11,42,24.10
2015,07,17,11,43,24.10
2015,07,17,11,44,24.20
2015,07,17,11,45,24.20
2015,07,17,11,46,24.20
2015,07,17,11,47,24.20
2015,07,17,11,48,24.20
2015,07,17,11,49,24.20
2015,07,17,11,50,24.30
2015,07,17,11,51,24.40
2015,07,17,11,52,24.40
2015,07,17,11,53,24.50
2015,07,17,11,54,24.60
2015,07,17,11,55,24.60
2015,07,17,11,56,24.60
2015,07,17,11,57,24.50
2015,07,17,11,58,24.50
2015,07,17,11,59,24.60
2015,07,17,12,00,24.70
2015,07,17,12,01,24.90
2015,07,17,12,02,25.00
2015,07,17,12,03,25.10
2015,07,17,12,04,25.20
2015,07,17,12,05,25.30
2015,07,17,12,06,25.30
2015,07,17,12,07,25.30
2015,07,17,12,08,25.30
2015,07,17,12,09,25.20
2015,07,17,12,10,25.20
2015,07,17,12,11,25.30
2015,07,17,12,12,25.20
2015,07,17,12,13,25.10
2015,07,17,12,14,25.00
2015,07,17,12,15,24.90
2015,07,17,12,16,24.90
2015,07,17,12,17,24.90
2015,07,17,12,18,24.90
2015,07,17,12,19,25.00
2015,07,17,12,20,25.10
2015,07,17,12,21,25.10
2015,07,17,12,22,25.10
2015,07,17,12,23,25.00
2015,07,17,12,24,24.80
2015,07,17,12,25,24.70
2015,07,17,12,26,24.60
2015,07,17,12,27,24.50
2015,07,17,12,28,24.50
2015,07,17,12,29,24.60
2015,07,17,12,30,24.60
2015,07,17,12,31,24.70
2015,07,17,12,32,24.80
2015,07,17,12,33,24.90
2015,07,17,12,34,24.90
2015,07,17,12,35,24.80
2015,07,17,12,36,24.90
2015,07,17,12,37,24.90
2015,07,17,12,38,24.90
2015,07,17,12,39,24.90
2015,07,17,12,40,24.80
2015,07,17,12,41,24.80
2015,07,17,12,42,24.90
2015,07,17,12,43,24.90
2015,07,17,12,44,25.10
2015,07,17,12,45,25.20
2015,07,17,12,46,25.30
2015,07,17,12,47,25.30
2015,07,17,12,48,25.40
2015,07,17,12,49,25.40
2015,07,17,12,50,25.30
2015,07,17,12,51,25.30
2015,07,17,12,52,25.30
2015,07,17,12,53,25.20
2015,07,17,12,54,25.20
2015,07,17,12,55,25.20
2015,07,17,12,56,25.30
2015,07,17,12,57,25.40
2015,07,17,12,58,25.60
2015,07,17,12,59,25.70
2015,07,17,13,00,25.70
2015,07,17,13,01,25.50
2015,07,17,13,02,25.50
2015,07,17,13,03,25.40
2015,07,17,13,04,25.40
2015,07,17,13,05,25.40
2015,07,17,13,06,25.40
2015,07,17,13,07,25.50
2015,07,17,13,08,25.50
2015,07,17,13,09,25.60
2015,07,17,13,10,25.70
2015,07,17,13,11,25.80
2015,07,17,13,12,25.90
2015,07,17,13,13,25.90
2015,07,17,13,14,25.90
2015,07,17,13,15,25.90
2015,07,17,13,16,26.00
2015,07,17,13,17,26.10
2015,07,17,13,18,26.00
2015,07,17,13,19,25.90
2015,07,17,13,20,25.80
2015,07,17,13,21,25.80
2015,07,17,13,22,25.90
2015,07,17,13,23,25.90
2015,07,17,13,24,25.90
2015,07,17,13,25,25.90
2015,07,17,13,26,25.80
2015,07,17,13,27,25.80
2015,07,17,13,28,25.90
2015,07,17,13,29,25.90
2015,07,17,13,30,25.90
2015,07,17,13,31,25.90
2015,07,17,13,32,25.90
2015,07,17,13,33,25.90
2015,07,17,13,34,25.90
2015,07,17,13,35,25.90
2015,07,17,13,36,25.80
2015,07,17,13,37,25.70
2015,07,17,13,38,25.70
2015,07,17,13,39,25.70
2015,07,17,13,40,25.70
2015,07,17,13,41,25.70
2015,07,17,13,42,25.80
2015,07,17,13,43,25.80
2015,07,17,13,44,25.80
2015,07,17,13,45,25.90
2015,07,17,13,46,25.90
2015,07,17,13,47,26.00
2015,07,17,13,48,25.90
2015,07,17,13,49,25.90
2015,07,17,13,50,25.90
2015,07,17,13,51,26.00
2015,07,17,13,52,26.00
2015,07,17,13,53,26.10
2015,07,17,13,54,26.00
2015,07,17,13,55,25.90
2015,07,17,13,56,25.90
2015,07,17,13,57,25.90
2015,07,17,13,58,26.00
2015,07,17,13,59,26.10
2015,07,17,14,00,26.10
2015,07,17,14,01,26.10
2015,07,17,14,02,26.20
2015,07,17,14,03,26.30
2015,07,17,14,04,26.30
2015,07,17,14,05,26.30
2015,07,17,14,06,26.30
2015,07,17,14,07,26.30
2015,07,17,14,08,26.20
2015,07,17,14,09,26.20
2015,07,17,14,10,26.20
2015,07,17,14,11,26.20
2015,07,17,14,12,26.30
2015,07,17,14,13,26.30
2015,07,17,14,14,26.30
2015,07,17,14,15,26.30
2015,07,17,14,16,26.30
2015,07,17,14,17,26.30
2015,07,17,14,18,26.30
2015,07,17,14,19,26.30
2015,07,17,14,20,26.30
2015,07,17,14,21,26.30
2015,07,17,14,22,26.30
2015,07,17,14,23,26.20
2015,07,17,14,24,26.20
2015,07,17,14,25,26.30
2015,07,17,14,26,26.30
2015,07,17,14,27,26.30
2015,07,17,14,28,26.40
2015,07,17,14,29,26.50
2015,07,17,14,30,26.60
2015,07,17,14,31,26.70
2015,07,17,14,32,26.80
2015,07,17,14,33,26.90
2015,07,17,14,34,26.90
2015,07,17,14,35,26.90
2015,07,17,14,36,26.90
2015,07,17,14,37,26.90
2015,07,17,14,38,26.90
2015,07,17,14,39,26.80
2015,07,17,14,40,26.80
2015,07,17,14,41,26.80
2015,07,17,14,42,26.90
2015,07,17,14,43,26.90
2015,07,17,14,44,26.90
2015,07,17,14,45,26.90
2015,07,17,14,46,27.00
2015,07,17,14,47,27.00
2015,07,17,14,48,26.90
2015,07,17,14,49,26.90
2015,07,17,14,50,26.90
2015,07,17,14,51,27.00
2015,07,17,14,52,27.00
2015,07,17,14,53,27.00
2015,07,17,14,54,27.00
2015,07,17,14,55,27.00
2015,07,17,14,56,27.20
2015,07,17,14,57,27.30
2015,07,17,14,58,27.40
2015,07,17,14,59,27.50
2015,07,17,15,00,27.60
2015,07,17,15,01,27.60
2015,07,17,15,02,27.70
2015,07,17,15,03,27.80
2015,07,17,15,04,27.80
2015,07,17,15,05,27.80
2015,07,17,15,06,27.70
2015,07,17,15,07,27.60
2015,07,17,15,08,27.60
2015,07,17,15,09,27.60
2015,07,17,15,10,27.70
2015,07,17,15,11,27.70
2015,07,17,15,12,27.70
2015,07,17,15,13,27.80
2015,07,17,15,14,27.80
2015,07,17,15,15,27.80
2015,07,17,15,16,27.90
2015,07,17,15,17,27.90
2015,07,17,15,18,27.90
2015,07,17,15,19,27.80
2015,07,17,15,20,27.80
2015,07,17,15,21,27.70
2015,07,17,15,22,27.60
2015,07,17,15,23,27.50
2015,07,17,15,24,27.50
2015,07,17,15,25,27.60
2015,07,17,15,26,27.50
2015,07,17,15,27,27.50
2015,07,17,15,28,27.50
2015,07,17,15,29,27.60
2015,07,17,15,30,27.70
2015,07,17,15,31,27.80
2015,07,17,15,32,27.90
2015,07,17,15,33,28.00
2015,07,17,15,34,28.00
2015,07,17,15,35,28.10
2015,07,17,15,36,28.20
2015,07,17,15,37,28.20
2015,07,17,15,38,28.30
2015,07,17,15,39,28.30
2015,07,17,15,40,28.30
2015,07,17,15,41,28.40
2015,07,17,15,42,28.40
2015,07,17,15,43,28.40
2015,07,17,15,44,28.40
2015,07,17,15,45,28.40
2015,07,17,15,46,28.30
2015,07,17,15,47,28.30
2015,07,17,15,48,28.30
2015,07,17,15,49,28.40
2015,07,17,15,50,28.50
2015,07,17,15,51,28.50
2015,07,17,15,52,28.60
2015,07,17,15,53,28.60
2015,07,17,15,54,28.60
2015,07,17,15,55,28.50
2015,07,17,15,56,28.40
2015,07,17,15,57,28.30
2015,07,17,15,58,28.30
2015,07,17,15,59,28.30
2015,07,17,16,00,28.30
2015,07,17,16,01,28.50
2015,07,17,16,02,28.60
2015,07,17,16,03,28.70
2015,07,17,16,04,28.90
2015,07,17,16,05,29.00
2015,07,17,16,06,29.10
2015,07,17,16,07,29.10
2015,07,17,16,08,29.00
2015,07,17,16,09,28.80
2015,07,17,16,10,28.80
2015,07,17,16,11,28.70
2015,07,17,16,12,28.70
2015,07,17,16,13,28.70
2015,07,17,16,14,28.70
2015,07,17,16,15,28.60
2015,07,17,16,16,28.60
2015,07,17,16,17,28.70
2015,07,17,16,18,28.70
2015,07,17,16,19,28.80
2015,07,17,16,20,28.80
2015,07,17,16,21,28.80
2015,07,17,16,22,28.80
2015,07,17,16,23,28.70
2015,07,17,16,24,28.70
2015,07,17,16,25,28.60
2015,07,17,16,26,28.50
2015,07,17,16,27,28.30
2015,07,17,16,28,28.30
2015,07,17,16,29,28.30
2015,07,17,16,30,28.30
2015,07,17,16,31,28.40
2015,07,17,16,32,28.40
2015,07,17,16,33,28.40
2015,07,17,16,34,28.50
2015,07,17,16,35,28.50
2015,07,17,16,36,28.50
2015,07,17,16,37,28.60
2015,07,17,16,38,28.70
2015,07,17,16,39,28.70
2015,07,17,16,40,28.70
2015,07,17,16,41,28.70
2015,07,17,16,42,28.60
2015,07,17,16,43,28.60
2015,07,17,16,44,28.70
2015,07,17,16,45,28.60
2015,07,17,16,46,28.60
2015,07,17,16,47,28.60
2015,07,17,16,48,28.60
2015,07,17,16,49,28.70
2015,07,17,16,50,28.70
2015,07,17,16,51,28.80
2015,07,17,16,52,28.80
2015,07,17,16,53,28.80
2015,07,17,16,54,28.80
2015,07,17,16,55,28.70
2015,07,17,16,56,28.70
2015,07,17,16,57,28.80
2015,07,17,16,58,28.90
2015,07,17,16,59,28.90
2015,07,17,17,00,28.90
2015,07,17,17,01,29.00
2015,07,17,17,02,29.00
2015,07,17,17,03,29.10
2015,07,17,17,04,29.20
2015,07,17,17,05,29.30
2015,07,17,17,06,29.30
2015,07,17,17,07,29.30
2015,07,17,17,08,29.20
2015,07,17,17,09,29.10
2015,07,17,17,10,29.10
2015,07,17,17,11,29.10
2015,07,17,17,12,29.00
2015,07,17,17,13,29.00
2015,07,17,17,14,29.00
2015,07,17,17,15,29.10
2015,07,17,17,16,29.10
2015,07,17,17,17,29.10
2015,07,17,17,18,29.10
2015,07,17,17,19,29.10